Regional Weather Roundup
Issued by NWS

Home | Current Version | Previous Version | Text Only | Print | Product List | Glossary Off
Versions: 1 2 3 4 5 6 7 8 9 10 11 12 13 14 15 16 17 18 19 20 21 22 23 24 25 26 27 28 29 30 31 32 33 34 35 36 37 38 39 40 41 42 43 44 45 46 47 48 49 50

000
ASUS43 KFSD 190810
RWRSD

WEATHER ROUNDUP FOR SOUTH DAKOTA
NATIONAL WEATHER SERVICE SIOUX FALLS SD
300 AM CDT THU APR 19 2018

NOTE: "FAIR" INDICATES FEW OR NO CLOUDS BELOW 12,000 FEET WITH NO
SIGNIFICANT WEATHER AND/OR OBSTRUCTIONS TO VISIBILITY.


SDZ001>005-009-010-012>017-190900-
NORTHWEST AND NORTH CENTRAL SOUTH DAKOTA

CITY           SKY/WX    TMP DP  RH WIND       PRES   REMARKS
BUFFALO          N/A     35  29  78 E7        30.23S WCI  29
FAITH            N/A     31  29  92 S12       30.31S WCI  22
MOBRIDGE       CLEAR     27  23  85 CALM      30.31S
$$

SDZ012>016-024>037-041>051-057-063-072>074-190900-
SOUTHWEST AND SOUTH CENTRAL SOUTH DAKOTA

CITY           SKY/WX    TMP DP  RH WIND       PRES   REMARKS
RAPID CTY ARPT CLEAR     30  28  92 CALM      30.29F
PIERRE         CLEAR     29  25  85 CALM      30.33S
CUSTER         PTCLDY    26  18  71 N5        30.26F WCI  20
ELLSWORTH AFB  CLEAR     37  36  97 SW5       30.28F
PHILIP         CLEAR     29  28  96 NW3       30.33R
PINE RIDGE     MOCLDY    31  30  96 CALM      30.29S
SPEARFISH      FAIR      32  25  74 CALM      30.27F
WINNER         FAIR      30  26  85 W5        30.34R WCI  25
$$

SDZ004>011-016>023-039-040-190900-
NORTHEAST SOUTH DAKOTA

CITY           SKY/WX    TMP DP  RH WIND       PRES   REMARKS
ABERDEEN       CLEAR     30  28  92 NW5       30.35R WCI  25
WATERTOWN      PTCLDY    29  28  96 CALM      30.31S
BROOKINGS      CLOUDY    32  28  85 N3        30.32R
SISSETON         N/A     33  30  88 CALM      30.32R
$$

SDZ017-020-022-023-036>040-048>070-190900-
SOUTHEAST SOUTH DAKOTA

CITY           SKY/WX    TMP DP  RH WIND       PRES   REMARKS
SIOUX FALLS    CLEAR     30  24  78 N7        30.32R WCI  23
HURON          CLEAR     28  26  92 CALM      30.34R
CHAMBERLAIN    CLEAR     33  31  95 CALM      30.34R
MITCHELL       CLEAR     31  28  89 NW5       30.35R WCI  26
YANKTON        CLEAR     31  30  96 NW10      30.32R WCI  22
$$

ABBREVIATIONS USED IN REMARKS
   TC - TEMPERATURE IN CELSIUS
  WCI - WIND CHILL INDEX
   HX - HEAT INDEX
  VSB - VISIBILITY





USA.gov is the U.S. government's official web portal to all federal, state and local government web resources and services.